IRIDIUM 33 DEB, 34350

Orbit data source: Space-Track

IRIDIUM 33 DEB, 34350 is space debris in LEO originally from a launch on Sun, 14 Sep 1997 UTC launched from the Tyuratam Missile And Space Complex (TTMTR). The debris from Iridium 33, an American commercial communications satellite, has been tracked extensively since its accidental collision with the defunct Russian satellite Cosmos 2251 in 2009. This event, occurring at high speed in low Earth orbit (LEO), generated thousands of pieces of space debris, significantly increasing the risk of further collisions. The Iridium 33 debris cloud has impacted space traffic management and orbital debris mitigation strategies, making it a subject of ongoing study in space situational awareness.

Loading next visibility...
Identifier
34350, 1997-051ES
Orbit
LEO
Country
Flag of USUS
Related business
Manufacturer
Unknown
Mission
Spacecraft
Bus & Motor
Unknown
Mass
Unknown
Launch date (UTC)
1997-09-14 (28 years ago)
Launch vehicle
Unknown
Launch site
Tyuratam Missile And Space Complex (TTMTR)
Object type
Payload
Rocket body
Debris
Shape & HBR
Unknown shape, 0.1 m
Radar Cross Section
Small (<0.1 m²)

Expand to show TLE details & history
Last TLE update: 14 hours ago

TLE from 14 hours ago
0 IRIDIUM 33 DEB
1 34350U 97051ES  25353.53650296  .00000853  00000-0  23595-3 0  9994
2 34350  86.3271 359.8577 0023302 114.2870  10.4643 14.45401660883919
Epoch: 2025-12-19T12:52Z
TLE epoch observation values (Epoch: 2025-12-19T12:52:33.855Z)
Latitude
55.13044°
Longitude
-106.91688°
Altitude
733.62 km
Speed
7.502 km/s
True Right ascension
11h 38m 24s
True Declination
54° 58' 06"
Sunlit
Object was in daylight at epoch
Visualization orbit readout
Latitude
Unknown
Longitude
Unknown
Altitude
Unknown
Speed
Unknown
Apparent Right ascension
Unknown
Apparent Declination
Unknown
Sunlit
N/A
Visualization observer readout
Local Sidereal Time
01:20:40
Azimuth
Unknown
Elevation
Unknown
Doppler factor
Unknown
Orbital elements
Apogee altitude
754.238 km
Perigee altitude
721.076 km
Semi-major axis
7,115.794 km
Eccentricity
0.00233
Inclination
86.3271°
RAAN
359.8577°
Arg. of periapsis
114.287°
True anomaly
10.51294°
Mean anomaly
10.4643°
Eccentric anomaly
10.4886°
Mean motion
3.61583 °/min
Orbital period
99.56 mins
BSTAR
0.00023595
Loading maneuver chart data...
Computing Atmospheric mass density...
Loading historical data...
Loading historical data...
Loading historical data...
Loading historical data...
Loading historical data...
Loading historical data...
Loading historical data...

Documentation

Showing up to 5 results
|